sat.trackr.live / text

‹ back to catalog

STARLINK-36825

NORAD 68041 · 2026-041B

PAYLOAD ACTIVE UNKNOWN

§ Identity

Operator
Country
US
Launch date
2026-03-02
Launch site
AFETR
Launch vehicle
Mass (kg)
RCS (m²)

Purposes: comms

External: N2YO · Heavens-Above · Gunter

§ Orbital elements

Epoch: 2026-09-19T12:51:46.002240Z

Period
93.85 min
Inclination
53.1580°
Eccentricity
0.0001311
Mean motion
15.34393878 rev/d
Perigee alt
461.8 km
Apogee alt
463.6 km
Semi-major
6,840.9 km
B*
5.1691e-4
RAAN
224.0302°
Arg perigee
151.0722°
Mean anomaly
209.0354°
Rev number
3,114

§ Raw data

STARLINK-368251 68041U 26041B   26262.53594910  .00017125  00000+0  51691-3 0  99962 68041  53.1580 224.0302 0001311 151.0722 209.0354 15.34393878 31143

JSON: /api/v1/satellites/68041 · /tle

For live sub-satellite position, see the globe view (requires WebGL).

§ Visibility from observer

Set your observer location to see the next 7 days of passes ≥ 10°. The values pass through the URL so the page stays shareable.

No JS? Fill the form by hand. The geolocation button needs JavaScript.